| time (UTC) | temp C | wind direction | speed KPH | gust KPH | rain 1hr cm | rain 24hr cm | rain mn cm | humidity % | barometer mb |
| 20260510111318 | 10 | 310 | 0.0 | 0.0 | 0.00 | 0.86 | 0.00 | 97 | 1011.6 |
| 20260510110819 | 10 | 310 | 0.0 | 0.0 | 0.00 | 0.86 | 0.00 | 97 | 1011.6 |
| 20260510110323 | 10 | 312 | 0.0 | 0.0 | 0.00 | 0.86 | 0.00 | 97 | 1011.6 |
| 20260510105840 | 10 | 312 | 0.0 | 3.2 | 0.00 | 0.86 | 0.00 | 97 | 1011.5 |
| 20260510105342 | 10 | 312 | 0.0 | 3.2 | 0.00 | 0.86 | 0.00 | 97 | 1011.5 |
| 20260510104823 | 10 | 312 | 0.0 | 0.0 | 0.00 | 0.86 | 0.00 | 97 | 1011.6 |
| 20260510104322 | 10 | 312 | 0.0 | 0.0 | 0.00 | 0.86 | 0.00 | 97 | 1011.5 |
| 20260510103820 | 10 | 312 | 0.0 | 0.0 | 0.00 | 0.86 | 0.00 | 97 | 1011.2 |
| 20260510103338 | 10 | 312 | 0.0 | 0.0 | 0.00 | 0.86 | 0.00 | 97 | 1011.3 |
| 20260510102813 | 10 | 312 | 0.0 | 0.0 | 0.00 | 0.86 | 0.00 | 97 | 1011.2 |
| 20260510102311 | 10 | 312 | 0.0 | 0.0 | 0.00 | 0.86 | 0.00 | 97 | 1011.1 |
| 20260510101836 | 10 | 312 | 0.0 | 0.0 | 0.00 | 0.86 | 0.00 | 97 | 1011.2 |
| 20260510101316 | 10 | 312 | 0.0 | 0.0 | 0.00 | 0.86 | 0.00 | 97 | 1011.2 |
| 20260510100836 | 10 | 312 | 0.0 | 0.0 | 0.00 | 0.86 | 0.00 | 97 | 1011.3 |
| 20260510100317 | 10 | 312 | 0.0 | 0.0 | 0.00 | 0.86 | 0.00 | 97 | 1011.1 |
| 20260510095816 | 10 | 312 | 0.0 | 0.0 | 0.00 | 0.86 | 0.00 | 97 | 1011.0 |
| 20260510095318 | 10 | 312 | 0.0 | 0.0 | 0.00 | 0.86 | 0.00 | 97 | 1011.1 |
| 20260510094820 | 10 | 312 | 0.0 | 0.0 | 0.00 | 0.86 | 0.00 | 97 | 1011.3 |
| 20260510094323 | 10 | 312 | 0.0 | 0.0 | 0.00 | 0.86 | 0.00 | 97 | 1011.3 |
| 20260510093821 | 10 | 312 | 0.0 | 0.0 | 0.00 | 0.86 | 0.00 | 97 | 1011.3 |
| 20260510093324 | 10 | 312 | 0.0 | 0.0 | 0.00 | 0.86 | 0.00 | 97 | 1011.3 |
| 20260510092821 | 10 | 312 | 0.0 | 0.0 | 0.00 | 0.86 | 0.00 | 97 | 1011.1 |
| 20260510092338 | 10 | 312 | 0.0 | 0.0 | 0.00 | 0.86 | 0.00 | 97 | 1011.1 |
| 20260510091833 | 10 | 312 | 0.0 | 0.0 | 0.00 | 0.86 | 0.00 | 97 | 1011.1 |
| 20260510091314 | 10 | 312 | 0.0 | 0.0 | 0.00 | 0.86 | 0.00 | 97 | 1011.2 |
| 20260510090837 | 10 | 312 | 0.0 | 0.0 | 0.00 | 0.86 | 0.00 | 97 | 1011.2 |
| 20260510090315 | 10 | 312 | 0.0 | 0.0 | 0.00 | 0.86 | 0.00 | 97 | 1011.2 |
| 20260510085816 | 10 | 312 | 0.0 | 0.0 | 0.00 | 0.86 | 0.00 | 97 | 1011.3 |
| 20260510085334 | 10 | 312 | 0.0 | 0.0 | 0.00 | 0.86 | 0.00 | 97 | 1011.5 |
| 20260510084838 | 10 | 312 | 0.0 | 0.0 | 0.00 | 0.86 | 0.00 | 97 | 1011.7 |
| 20260510084313 | 10 | 312 | 0.0 | 3.2 | 0.00 | 0.86 | 0.00 | 97 | 1011.7 |
| 20260510083820 | 10 | 312 | 0.0 | 6.4 | 0.00 | 0.86 | 0.00 | 97 | 1011.6 |
| 20260510083318 | 10 | 325 | 0.0 | 6.4 | 0.00 | 0.86 | 0.00 | 97 | 1011.6 |
| 20260510082820 | 10 | 323 | 1.6 | 6.4 | 0.00 | 0.86 | 0.00 | 97 | 1011.6 |
| 20260510082339 | 10 | 323 | 1.6 | 6.4 | 0.00 | 0.86 | 0.00 | 97 | 1011.6 |
| 20260510081840 | 10 | 321 | 1.6 | 9.7 | 0.00 | 0.86 | 0.00 | 97 | 1011.6 |
| 20260510081339 | 10 | 329 | 4.8 | 9.7 | 0.00 | 0.86 | 0.00 | 97 | 1011.7 |
| 20260510080818 | 10 | 327 | 4.8 | 9.7 | 0.00 | 0.86 | 0.00 | 97 | 1011.4 |
| 20260510080323 | 10 | 330 | 3.2 | 12.9 | 0.00 | 0.86 | 0.00 | 97 | 1011.2 |
| 20260510075822 | 10 | 9 | 6.4 | 12.9 | 0.00 | 0.86 | 0.00 | 97 | 1011.5 |
| 20260510075322 | 10 | 303 | 1.6 | 12.9 | 0.00 | 0.86 | 0.00 | 97 | 1011.2 |
| 20260510074822 | 10 | 336 | 4.8 | 12.9 | 0.00 | 0.86 | 0.00 | 97 | 1011.2 |
| 20260510074321 | 10 | 320 | 0.0 | 0.0 | 0.00 | 0.86 | 0.00 | 97 | 1010.7 |
| 20260510073817 | 10 | 320 | 0.0 | 0.0 | 0.00 | 0.86 | 0.00 | 97 | 1010.8 |
| 20260510073315 | 10 | 320 | 0.0 | 4.8 | 0.00 | 0.86 | 0.00 | 96 | 1010.8 |
| 20260510072814 | 10 | 320 | 1.6 | 4.8 | 0.00 | 0.86 | 0.00 | 96 | 1010.7 |
| 20260510072338 | 10 | 315 | 0.0 | 3.2 | 0.00 | 0.86 | 0.00 | 96 | 1010.7 |
| 20260510071834 | 10 | 315 | 0.0 | 4.8 | 0.00 | 0.86 | 0.00 | 96 | 1010.5 |
| 20260510071316 | 10 | 233 | 0.0 | 4.8 | 0.00 | 0.86 | 0.00 | 96 | 1010.6 |
| 20260510070814 | 10 | 341 | 0.0 | 4.8 | 0.00 | 0.86 | 0.00 | 96 | 1010.7 |
| 20260510070318 | 10 | 347 | 3.2 | 4.8 | 0.00 | 0.86 | 0.00 | 97 | 1010.7 |
| 20260510065835 | 10 | 344 | 1.6 | 4.8 | 0.00 | 0.86 | 0.00 | 96 | 1010.7 |
| 20260510065322 | 10 | 281 | 1.6 | 4.8 | 0.00 | 0.86 | 0.00 | 96 | 1010.7 |
| 20260510064818 | 10 | 277 | 0.0 | 3.2 | 0.00 | 0.86 | 0.00 | 96 | 1010.8 |
| 20260510064322 | 10 | 5 | 0.0 | 6.4 | 0.00 | 0.86 | 0.00 | 96 | 1010.8 |
| 20260510063818 | 10 | 289 | 1.6 | 6.4 | 0.00 | 0.86 | 0.00 | 96 | 1010.8 |
| 20260510063343 | 10 | 313 | 0.0 | 6.4 | 0.00 | 0.86 | 0.00 | 96 | 1010.8 |
| 20260510062819 | 10 | 319 | 0.0 | 6.4 | 0.00 | 0.86 | 0.00 | 96 | 1010.9 |
| 20260510062321 | 10 | 322 | 0.0 | 4.8 | 0.00 | 0.86 | 0.00 | 96 | 1010.9 |
| 20260510061823 | 10 | 326 | 1.6 | 4.8 | 0.00 | 0.86 | 0.00 | 96 | 1010.8 |
| 20260510061326 | 10 | 323 | 3.2 | 4.8 | 0.00 | 0.86 | 0.00 | 96 | 1010.8 |
| 20260510060822 | 10 | 325 | 3.2 | 4.8 | 0.00 | 0.86 | 0.00 | 96 | 1010.8 |
| 20260510060346 | 10 | 355 | 0.0 | 3.2 | 0.00 | 0.86 | 0.00 | 96 | 1010.8 |
| 20260510055821 | 10 | 360 | 1.6 | 3.2 | 0.00 | 0.86 | 0.00 | 96 | 1010.6 |
| 20260510055316 | 10 | 15 | 0.0 | 0.0 | 0.00 | 0.86 | 0.00 | 96 | 1010.6 |
| 20260510054813 | 10 | 15 | 0.0 | 0.0 | 0.00 | 0.86 | 0.00 | 96 | 1010.7 |
| 20260510054338 | 10 | 15 | 0.0 | 0.0 | 0.00 | 0.86 | 0.00 | 96 | 1010.7 |
| 20260510053837 | 10 | 15 | 0.0 | 0.0 | 0.00 | 0.86 | 0.00 | 96 | 1010.6 |
| 20260510053318 | 10 | 15 | 0.0 | 0.0 | 0.00 | 0.86 | 0.00 | 96 | 1010.7 |
| 20260510052816 | 10 | 15 | 0.0 | 0.0 | 0.00 | 0.86 | 0.00 | 96 | 1010.7 |
| 20260510052339 | 10 | 15 | 0.0 | 0.0 | 0.00 | 0.86 | 0.00 | 96 | 1010.6 |
| 20260510051814 | 10 | 19 | 0.0 | 0.0 | 0.00 | 0.86 | 0.00 | 96 | 1010.7 |
| 20260510051319 | 10 | 19 | 0.0 | 0.0 | 0.00 | 0.86 | 0.00 | 96 | 1010.7 |
| 20260510050820 | 10 | 19 | 0.0 | 0.0 | 0.00 | 0.86 | 0.00 | 96 | 1010.8 |
| 20260510050323 | 10 | 19 | 0.0 | 0.0 | 0.00 | 0.86 | 0.00 | 96 | 1010.9 |
| 20260510045821 | 10 | 19 | 0.0 | 3.2 | 0.00 | 0.86 | 0.00 | 96 | 1010.9 |
| 20260510045339 | 10 | 19 | 0.0 | 3.2 | 0.00 | 0.86 | 0.00 | 96 | 1010.9 |
| 20260510044814 | 10 | 61 | 0.0 | 0.0 | 0.00 | 0.86 | 0.00 | 96 | 1010.8 |
| 20260510044333 | 10 | 74 | 0.0 | 0.0 | 0.00 | 0.86 | 0.00 | 96 | 1010.8 |
| 20260510043814 | 10 | 74 | 0.0 | 0.0 | 0.00 | 0.86 | 0.00 | 96 | 1010.9 |
| 20260510043315 | 10 | 74 | 0.0 | 0.0 | 0.00 | 0.86 | 0.00 | 96 | 1010.8 |
| 20260510042837 | 10 | 74 | 0.0 | 0.0 | 0.00 | 0.86 | 0.00 | 96 | 1010.9 |
| 20260510042316 | 10 | 74 | 0.0 | 0.0 | 0.00 | 0.86 | 0.00 | 96 | 1011.0 |
| 20260510041816 | 10 | 59 | 0.0 | 0.0 | 0.00 | 0.86 | 0.00 | 96 | 1010.9 |
| 20260510041317 | 10 | 59 | 0.0 | 0.0 | 0.00 | 0.86 | 0.00 | 96 | 1010.9 |
| 20260510040820 | 10 | 59 | 0.0 | 0.0 | 0.00 | 0.86 | 0.00 | 96 | 1010.8 |
| 20260510040321 | 10 | 59 | 0.0 | 0.0 | 0.00 | 0.86 | 0.00 | 96 | 1010.8 |
| 20260510035820 | 10 | 59 | 0.0 | 0.0 | 0.00 | 0.86 | 0.86 | 96 | 1010.8 |
| 20260510035320 | 10 | 59 | 0.0 | 0.0 | 0.00 | 0.86 | 0.86 | 96 | 1010.8 |
| 20260510034819 | 10 | 59 | 0.0 | 0.0 | 0.00 | 0.86 | 0.86 | 96 | 1010.8 |
| 20260510034319 | 10 | 59 | 0.0 | 0.0 | 0.00 | 0.86 | 0.86 | 96 | 1010.8 |
| 20260510033820 | 10 | 59 | 0.0 | 0.0 | 0.00 | 0.86 | 0.86 | 96 | 1010.8 |
| 20260510033321 | 10 | 59 | 0.0 | 0.0 | 0.00 | 0.86 | 0.86 | 96 | 1010.7 |
| 20260510032835 | 10 | 59 | 0.0 | 0.0 | 0.00 | 0.86 | 0.86 | 96 | 1010.7 |
| 20260510032312 | 10 | 59 | 0.0 | 0.0 | 0.00 | 0.86 | 0.86 | 96 | 1010.6 |
| 20260510031815 | 10 | 59 | 0.0 | 0.0 | 0.00 | 0.86 | 0.86 | 96 | 1010.7 |
| 20260510031311 | 10 | 59 | 0.0 | 0.0 | 0.00 | 0.86 | 0.86 | 96 | 1010.6 |
| 20260510030836 | 10 | 59 | 0.0 | 0.0 | 0.00 | 0.86 | 0.86 | 96 | 1010.4 |
| 20260510030312 | 10 | 59 | 0.0 | 0.0 | 0.00 | 0.86 | 0.86 | 96 | 1010.4 |
| 20260510025818 | 10 | 59 | 0.0 | 0.0 | 0.00 | 0.86 | 0.86 | 96 | 1010.5 |
| 20260510025317 | 10 | 59 | 0.0 | 1.6 | 0.00 | 0.86 | 0.86 | 95 | 1010.4 |
| 20260510024819 | 10 | 59 | 0.0 | 1.6 | 0.00 | 0.86 | 0.86 | 95 | 1010.4 |
| 20260510024337 | 10 | 59 | 0.0 | 0.0 | 0.00 | 0.86 | 0.86 | 95 | 1010.4 |
| 20260510023819 | 10 | 88 | 0.0 | 0.0 | 0.00 | 0.86 | 0.86 | 95 | 1010.4 |
| 20260510023315 | 10 | 88 | 0.0 | 0.0 | 0.00 | 0.86 | 0.86 | 95 | 1010.4 |
| 20260510022815 | 10 | 88 | 0.0 | 0.0 | 0.00 | 0.86 | 0.86 | 96 | 1010.5 |
| 20260510022312 | 10 | 88 | 0.0 | 0.0 | 0.00 | 0.86 | 0.86 | 95 | 1010.5 |
| 20260510021811 | 10 | 88 | 0.0 | 0.0 | 0.00 | 0.86 | 0.86 | 95 | 1010.5 |
| 20260510021333 | 10 | 88 | 0.0 | 0.0 | 0.00 | 0.86 | 0.86 | 95 | 1010.5 |
| 20260510020812 | 10 | 88 | 0.0 | 0.0 | 0.00 | 0.86 | 0.86 | 95 | 1010.6 |
| 20260510020312 | 10 | 88 | 0.0 | 0.0 | 0.00 | 0.86 | 0.86 | 95 | 1010.5 |
| 20260510015812 | 10 | 88 | 0.0 | 0.0 | 0.00 | 0.86 | 0.86 | 95 | 1010.5 |
| 20260510015334 | 10 | 88 | 0.0 | 0.0 | 0.00 | 0.86 | 0.86 | 95 | 1010.5 |
| 20260510014816 | 10 | 88 | 0.0 | 0.0 | 0.00 | 0.86 | 0.86 | 95 | 1010.5 |
| 20260510014337 | 10 | 88 | 0.0 | 0.0 | 0.00 | 0.86 | 0.86 | 95 | 1010.5 |
| 20260510013816 | 10 | 88 | 0.0 | 0.0 | 0.00 | 0.86 | 0.86 | 95 | 1010.5 |
| 20260510013337 | 10 | 88 | 0.0 | 0.0 | 0.00 | 0.86 | 0.86 | 95 | 1010.4 |
| 20260510012817 | 10 | 88 | 0.0 | 0.0 | 0.00 | 0.86 | 0.86 | 95 | 1010.6 |
| 20260510012313 | 10 | 88 | 0.0 | 0.0 | 0.00 | 0.86 | 0.86 | 95 | 1010.6 |
| 20260510011839 | 10 | 88 | 0.0 | 0.0 | 0.00 | 0.86 | 0.86 | 95 | 1010.4 |
| 20260510011314 | 10 | 88 | 0.0 | 0.0 | 0.00 | 0.86 | 0.86 | 94 | 1010.3 |
| 20260510010820 | 11 | 88 | 0.0 | 0.0 | 0.00 | 0.86 | 0.86 | 94 | 1010.3 |
| 20260510010339 | 11 | 87 | 0.0 | 0.0 | 0.00 | 0.86 | 0.86 | 94 | 1010.3 |
| 20260510005840 | 11 | 86 | 0.0 | 0.0 | 0.00 | 0.86 | 0.86 | 94 | 1010.2 |
| 20260510005319 | 11 | 86 | 0.0 | 0.0 | 0.00 | 0.86 | 0.86 | 94 | 1010.0 |
| 20260510004819 | 11 | 86 | 0.0 | 0.0 | 0.00 | 0.86 | 0.86 | 94 | 1010.0 |
| 20260510004319 | 11 | 86 | 0.0 | 0.0 | 0.00 | 0.86 | 0.86 | 94 | 1010.0 |
| 20260510003822 | 11 | 86 | 0.0 | 0.0 | 0.00 | 0.86 | 0.86 | 94 | 1009.9 |
| 20260510003320 | 11 | 86 | 0.0 | 0.0 | 0.00 | 0.86 | 0.86 | 94 | 1009.9 |
| 20260510002826 | 11 | 86 | 0.0 | 0.0 | 0.00 | 0.86 | 0.86 | 94 | 1009.9 |
| 20260510002319 | 11 | 86 | 0.0 | 0.0 | 0.00 | 0.86 | 0.86 | 94 | 1009.9 |
| 20260510001843 | 11 | 86 | 0.0 | 0.0 | 0.00 | 0.86 | 0.86 | 94 | 1009.9 |
| 20260510001323 | 12 | 86 | 0.0 | 0.0 | 0.00 | 0.86 | 0.86 | 94 | 1009.9 |
| 20260510000842 | 12 | 86 | 0.0 | 0.0 | 0.00 | 0.86 | 0.86 | 94 | 1010.0 |
| 20260510000341 | 12 | 86 | 0.0 | 0.0 | 0.00 | 0.86 | 0.86 | 94 | 1010.0 |
| 20260509235814 | 12 | 86 | 0.0 | 0.0 | 0.00 | 0.86 | 0.86 | 94 | 1010.0 |
| 20260509235315 | 12 | 86 | 0.0 | 0.0 | 0.00 | 0.86 | 0.86 | 94 | 1009.9 |
| 20260509234814 | 12 | 86 | 0.0 | 0.0 | 0.00 | 0.86 | 0.86 | 94 | 1009.8 |
| 20260509234315 | 12 | 86 | 0.0 | 0.0 | 0.00 | 0.86 | 0.86 | 94 | 1009.7 |
| 20260509233816 | 12 | 86 | 0.0 | 0.0 | 0.00 | 0.86 | 0.86 | 94 | 1009.6 |
| 20260509233316 | 12 | 86 | 0.0 | 0.0 | 0.00 | 0.86 | 0.86 | 93 | 1009.5 |
| 20260509232817 | 12 | 86 | 0.0 | 0.0 | 0.00 | 0.86 | 0.86 | 94 | 1009.5 |
| 20260509232318 | 12 | 86 | 0.0 | 0.0 | 0.00 | 0.86 | 0.86 | 93 | 1009.5 |
| 20260509231819 | 12 | 86 | 0.0 | 0.0 | 0.00 | 0.86 | 0.86 | 93 | 1009.5 |
| 20260509231318 | 12 | 86 | 0.0 | 3.2 | 0.00 | 0.86 | 0.86 | 93 | 1009.6 |
| 20260509230841 | 12 | 76 | 0.0 | 3.2 | 0.00 | 0.86 | 0.86 | 93 | 1009.5 |
| 20260509230342 | 12 | 245 | 0.0 | 1.6 | 0.00 | 0.86 | 0.86 | 93 | 1009.5 |
| 20260509225820 | 12 | 245 | 0.0 | 1.6 | 0.00 | 0.86 | 0.86 | 93 | 1009.6 |
| 20260509225322 | 12 | 232 | 0.0 | 1.6 | 0.00 | 0.86 | 0.86 | 93 | 1009.6 |
| 20260509224824 | 12 | 232 | 0.0 | 1.6 | 0.00 | 0.86 | 0.86 | 94 | 1009.7 |
| 20260509224343 | 12 | 278 | 0.0 | 0.0 | 0.00 | 0.86 | 0.86 | 94 | 1009.7 |
| 20260509223838 | 12 | 240 | 0.0 | 0.0 | 0.00 | 0.86 | 0.86 | 94 | 1009.7 |
| 20260509223314 | 12 | 294 | 0.0 | 0.0 | 0.00 | 0.86 | 0.86 | 93 | 1009.8 |
| 20260509222830 | 12 | 294 | 0.0 | 1.6 | 0.00 | 0.86 | 0.86 | 94 | 1009.9 |
| 20260509222326 | 12 | 294 | 0.0 | 1.6 | 0.00 | 0.86 | 0.86 | 94 | 1009.9 |
| 20260509221822 | 12 | 343 | 0.0 | 0.0 | 0.03 | 0.86 | 0.86 | 94 | 1010.0 |
| 20260509221339 | 12 | 343 | 0.0 | 1.6 | 0.03 | 0.86 | 0.86 | 94 | 1010.0 |
| 20260509220815 | 12 | 343 | 0.0 | 1.6 | 0.08 | 0.86 | 0.86 | 93 | 1009.9 |
| 20260509220316 | 12 | 140 | 0.0 | 0.0 | 0.13 | 0.86 | 0.86 | 94 | 1009.9 |
| 20260509215812 | 12 | 138 | 0.0 | 3.2 | 0.15 | 0.86 | 0.86 | 93 | 1010.0 |
| 20260509215328 | 12 | 153 | 0.0 | 3.2 | 0.20 | 0.86 | 0.86 | 93 | 1010.0 |
| 20260509214825 | 12 | 113 | 0.0 | 0.0 | 0.23 | 0.86 | 0.86 | 94 | 1010.0 |
| 20260509214323 | 12 | 116 | 0.0 | 0.0 | 0.25 | 0.86 | 0.86 | 93 | 1009.9 |
| 20260509213817 | 12 | 92 | 0.0 | 0.0 | 0.25 | 0.86 | 0.86 | 93 | 1010.0 |
| 20260509213314 | 12 | 13 | 0.0 | 0.0 | 0.28 | 0.86 | 0.86 | 93 | 1010.1 |
| 20260509212813 | 12 | 13 | 0.0 | 0.0 | 0.30 | 0.86 | 0.86 | 93 | 1010.1 |
| 20260509212332 | 12 | 13 | 0.0 | 0.0 | 0.33 | 0.86 | 0.86 | 93 | 1009.8 |
| 20260509211827 | 12 | 285 | 0.0 | 0.0 | 0.33 | 0.84 | 0.84 | 93 | 1010.1 |
| 20260509211323 | 12 | 313 | 0.0 | 0.0 | 0.36 | 0.81 | 0.81 | 92 | 1009.8 |
| 20260509210820 | 12 | 313 | 0.0 | 0.0 | 0.30 | 0.76 | 0.76 | 92 | 1010.0 |
| 20260509210317 | 12 | 313 | 0.0 | 1.6 | 0.30 | 0.74 | 0.74 | 92 | 1009.8 |
| 20260509205812 | 12 | 313 | 0.0 | 1.6 | 0.30 | 0.71 | 0.71 | 92 | 1009.9 |
| 20260509205312 | 12 | 313 | 0.0 | 3.2 | 0.25 | 0.66 | 0.66 | 92 | 1009.8 |
| 20260509204829 | 12 | 313 | 1.6 | 3.2 | 0.25 | 0.64 | 0.64 | 91 | 1009.8 |
| 20260509204326 | 12 | 347 | 0.0 | 3.2 | 0.23 | 0.61 | 0.61 | 91 | 1009.8 |
| 20260509203823 | 12 | 346 | 0.0 | 3.2 | 0.25 | 0.61 | 0.61 | 91 | 1009.7 |
| 20260509203320 | 12 | 342 | 1.6 | 6.4 | 0.25 | 0.58 | 0.58 | 91 | 1009.9 |
| 20260509202815 | 12 | 342 | 3.2 | 8.0 | 0.28 | 0.56 | 0.56 | 91 | 1009.8 |
| 20260509202311 | 12 | 349 | 0.0 | 8.0 | 0.25 | 0.53 | 0.53 | 90 | 1010.0 |
| 20260509201813 | 12 | 309 | 0.0 | 4.8 | 0.28 | 0.51 | 0.51 | 90 | 1010.1 |
| 20260509201328 | 12 | 340 | 1.6 | 4.8 | 0.30 | 0.46 | 0.46 | 90 | 1010.0 |
| 20260509200825 | 12 | 226 | 0.0 | 11.3 | 0.28 | 0.43 | 0.43 | 90 | 1010.1 |
| 20260509200321 | 12 | 269 | 3.2 | 12.9 | 0.30 | 0.43 | 0.43 | 90 | 1010.2 |
| 20260509195818 | 12 | 281 | 1.6 | 8.0 | 0.30 | 0.41 | 0.41 | 90 | 1010.3 |
| 20260509195315 | 12 | 317 | 1.6 | 8.0 | 0.33 | 0.41 | 0.41 | 90 | 1010.4 |
| 20260509194811 | 12 | 332 | 1.6 | 6.4 | 0.30 | 0.38 | 0.38 | 90 | 1010.5 |
| 20260509194311 | 12 | 278 | 1.6 | 4.8 | 0.30 | 0.38 | 0.38 | 90 | 1010.4 |
| 20260509193828 | 12 | 265 | 1.6 | 9.7 | 0.30 | 0.36 | 0.36 | 90 | 1010.4 |
| 20260509193325 | 12 | 22 | 3.2 | 9.7 | 0.28 | 0.33 | 0.33 | 90 | 1010.6 |
| 20260509192820 | 12 | 289 | 1.6 | 8.0 | 0.23 | 0.28 | 0.28 | 90 | 1010.5 |
| 20260509192337 | 12 | 355 | 3.2 | 8.0 | 0.20 | 0.25 | 0.25 | 89 | 1010.6 |
| 20260509191813 | 12 | 227 | 3.2 | 6.4 | 0.15 | 0.20 | 0.20 | 89 | 1010.4 |
| 20260509191329 | 12 | 267 | 1.6 | 8.0 | 0.13 | 0.15 | 0.15 | 89 | 1010.7 |
| 20260509190826 | 12 | 286 | 3.2 | 8.0 | 0.13 | 0.15 | 0.15 | 88 | 1010.7 |
| 20260509190327 | 12 | 277 | 0.0 | 11.3 | 0.10 | 0.13 | 0.13 | 88 | 1010.6 |
| 20260509185822 | 12 | 277 | 1.6 | 8.0 | 0.10 | 0.10 | 0.10 | 88 | 1010.6 |
| 20260509185320 | 12 | 333 | 1.6 | 6.4 | 0.08 | 0.08 | 0.08 | 88 | 1010.6 |
| 20260509184816 | 12 | 328 | 1.6 | 6.4 | 0.08 | 0.08 | 0.08 | 88 | 1010.5 |
| 20260509184313 | 13 | 294 | 1.6 | 4.8 | 0.08 | 0.08 | 0.08 | 88 | 1010.6 |
| 20260509183829 | 12 | 17 | 0.0 | 9.7 | 0.05 | 0.05 | 0.05 | 87 | 1010.4 |
| 20260509183346 | 12 | 204 | 3.2 | 16.1 | 0.05 | 0.05 | 0.05 | 86 | 1010.3 |
| 20260509182824 | 12 | 347 | 9.7 | 16.1 | 0.05 | 0.05 | 0.05 | 85 | 1010.2 |
| 20260509182322 | 13 | 360 | 4.8 | 16.1 | 0.05 | 0.05 | 0.05 | 84 | 1010.6 |
| 20260509181818 | 13 | 306 | 4.8 | 16.1 | 0.05 | 0.05 | 0.05 | 84 | 1010.8 |
| 20260509181314 | 13 | 330 | 3.2 | 8.0 | 0.03 | 0.03 | 0.03 | 84 | 1010.9 |
| 20260509180811 | 13 | 355 | 1.6 | 12.9 | 0.03 | 0.03 | 0.03 | 82 | 1011.0 |
| 20260509180328 | 14 | 234 | 3.2 | 12.9 | 0.00 | 0.00 | 0.00 | 80 | 1011.2 |
| 20260509175845 | 14 | 350 | 3.2 | 14.5 | 0.00 | 0.00 | 0.00 | 79 | 1011.2 |
| 20260509175319 | 15 | 324 | 3.2 | 14.5 | 0.00 | 0.00 | 0.00 | 77 | 1011.2 |
| 20260509174819 | 15 | 342 | 3.2 | 16.1 | 0.00 | 0.00 | 0.00 | 77 | 1011.1 |
| 20260509174317 | 15 | 168 | 1.6 | 16.1 | 0.00 | 0.00 | 0.00 | 76 | 1011.1 |
| 20260509173813 | 15 | 311 | 4.8 | 12.9 | 0.00 | 0.00 | 0.00 | 76 | 1010.9 |
| 20260509173330 | 15 | 324 | 1.6 | 9.7 | 0.00 | 0.00 | 0.00 | 76 | 1010.8 |
| 20260509172826 | 15 | 14 | 1.6 | 11.3 | 0.00 | 0.00 | 0.00 | 75 | 1010.7 |
| 20260509172344 | 16 | 207 | 4.8 | 14.5 | 0.00 | 0.00 | 0.00 | 73 | 1010.7 |
| 20260509171819 | 16 | 306 | 3.2 | 14.5 | 0.00 | 0.00 | 0.00 | 71 | 1010.7 |
| 20260509171336 | 16 | 347 | 4.8 | 11.3 | 0.00 | 0.00 | 0.00 | 71 | 1010.6 |
| 20260509170816 | 16 | 306 | 1.6 | 8.0 | 0.00 | 0.00 | 0.00 | 73 | 1010.6 |
| 20260509170313 | 16 | 15 | 3.2 | 12.9 | 0.00 | 0.00 | 0.00 | 70 | 1010.6 |
| 20260509165828 | 16 | 345 | 3.2 | 12.9 | 0.00 | 0.00 | 0.00 | 69 | 1010.7 |
| 20260509165326 | 16 | 309 | 0.0 | 6.4 | 0.00 | 0.00 | 0.00 | 69 | 1010.6 |
| 20260509164822 | 16 | 284 | 1.6 | 6.4 | 0.00 | 0.00 | 0.00 | 70 | 1010.6 |